Regional Weather Roundup
Issued by NWS

Home | Current Version | Previous Version | Text Only | Print | Product List | Glossary Off
Versions: 1 2 3 4 5 6 7 8 9 10 11 12 13 14 15 16 17 18 19 20 21 22 23 24 25 26 27 28 29 30 31 32 33 34 35 36 37 38 39 40 41 42 43 44 45 46 47 48 49 50

000
ASUS45 KCYS 051410
RWRWY

WYOMING REGIONAL WEATHER ROUNDUP
NATIONAL WEATHER SERVICE CHEYENNE WY
700 AM MST THU MAR 05 2015

NOTE:  "FAIR" INDICATES FEW OR NO CLOUDS BELOW 12,000 FEET
WITH NO SIGNIFICANT WEATHER AND/OR OBSTRUCTIONS TO VISIBILITY.

WYZ001-051500-
YELLOWSTONE NATIONAL PARK

CITY           SKY/WX    TMP DP  RH WIND       PRES   REMARKS
LK YELLOWSTONE   N/A     -9 -14  78 CALM      30.26R
W YELLOWSTONE  NOT AVBL

$$
WYZ002>013-054>058-071-098>099-051500-
NORTHERN WYOMING

CITY           SKY/WX    TMP DP  RH WIND       PRES   REMARKS
JACKSON        FAIR      -6  -9  84 NE5       30.32R WCI -17
CODY           FAIR      19   9  63 NW8G17    30.11S WCI   9
GREYBULL       FAIR      12   3  67 S3        30.22R
WORLAND        FAIR      10   2  69 S5        30.20R WCI   2
SHERIDAN       FAIR      16   5  62 S7        30.10S WCI   6
BUFFALO        FAIR      24   6  46 W7        30.09R WCI  16
GILLETTE       FAIR      20   6  55 W10       30.09R WCI   9
HULETT         PTSUNNY   14   3  62 SW8       30.10R WCI   3
NEWCASTLE      FAIR       3   0  85 CALM      30.14S

$$
WYZ014>020-022>026-101>103-051500-
CENTRAL WYOMING

CITY           SKY/WX    TMP DP  RH WIND       PRES   REMARKS
BIG PINEY      FAIR       4  -2  76 NW5       30.25R WCI  -5
PINEDALE       FAIR      10   3  72 NW12      30.24R WCI  -4
DUBOIS         FAIR      14   3  62 NW13      30.19R WCI   0
LANDER         FAIR       1  -5  75 NW5       30.17R WCI  -9
RIVERTON       FAIR      -2  -7  79 CALM      30.18R
CASPER         FAIR      18   8  65 SW17      30.16R WCI   3
DOUGLAS        FAIR      -9 -15  75 CALM      30.16S

$$
WYZ021-027>030-104>119-051500-
SOUTHERN WYOMING

CITY           SKY/WX    TMP DP  RH WIND       PRES   REMARKS
EVANSTON       FAIR      11   4  73 SW12      30.31R WCI  -3
FORT BRIDGER   FAIR      21  11  64 W15       30.31R WCI   8
ROCK SPRINGS   FAIR      16   6  65 S18       30.25R WCI   0
DIXON          FAIR       4   0  81 CALM      30.33F
RAWLINS        FAIR      18   5  57 VRB6      30.21R WCI  10
SARATOGA       FAIR      10   3  72 SE13      30.24R WCI  -5
LARAMIE        FAIR      18   4  54 SW18      30.12R WCI   2
CHEYENNE       FAIR      24   6  46 W12       30.11R WCI  13
TORRINGTON     FAIR       7   0  73 SW5       30.17S WCI  -2
PINE BLUFFS    FAIR       9   3  78 SW7       30.17R WCI  -3

$$


USA.gov is the U.S. government's official web portal to all federal, state and local government web resources and services.